This demonstration page uses our WeatherBlox Daily Observations layout. Learn more.

Left ArrowRight Arrow

Hourly Observations for July 13, 2016

Temp ( °F °C ) Dew Point ( °F °C ) Humidity (%) Winds ( mph kmh ) Pressure ( in mb ) Visibility ( mi km ) Precip ( " mm )
12:51 am 00:51 Clear 86 30 38 3.3 18 18 N 10 17 29.76 1008 10 16 0.00 0.00
1:51 am 01:51 Clear 85 29.4 36 2.2 17 17 NNW 9 15 29.77 1008 10 16 0.00 0.00
2:51 am 02:51 Clear 83 28.3 36 2.2 19 19 NW 14 22 29.78 1008 10 16 0.00 0.00
3:51 am 03:51 Clear 80 26.7 37 2.8 21 21 NW 13 20 29.79 1009 10 16 0.00 0.00
4:51 am 04:51 Clear 77 25 37 2.8 24 24 NW 13 20 29.82 1010 10 16 0.00 0.00
5:51 am 05:51 Sunny 78 25.6 38 3.3 24 24 NW 7 11 29.85 1011 10 16 0.00 0.00
6:51 am 06:51 Sunny 84 28.9 39 3.9 20 20 Calm 29.88 1012 10 16 0.00 0.00
7:51 am 07:51 Sunny 87 30.6 41 5 20 20 W 6 9 29.90 1013 10 16 0.00 0.00
9:51 am 09:51 Sunny 95 35 49 9.4 21 21 NNW 16 26 29.89 1012 10 16 0.00 0.00
10:51 am 10:51 Sunny 98 36.7 49 9.4 19 19 NW 14 22 29.88 1012 10 16 0.00 0.00
11:51 am 11:51 Sunny 100 37.8 47 8.3 16 16 NW 17 28 29.85 1011 10 16 0.00 0.00
12:51 pm 12:51 Sunny 102 38.9 45 7.2 14 14 WNW 21 33 29.83 1010 10 16 0.00 0.00
1:51 pm 13:51 Sunny 104 40 45 7.2 13 13 NNW 22 35 29.79 1009 10 16 0.00 0.00
2:51 pm 14:51 Sunny 104 40 43 6.1 12 12 WNW 17 28 29.78 1009 10 16 0.00 0.00
3:51 pm 15:51 Sunny 104 40 44 6.7 13 13 NW 15 24 29.77 1008 10 16 0.00 0.00
4:51 pm 16:51 Sunny 103 39.4 43 6.1 13 13 NW 20 31 29.75 1008 10 16 0.00 0.00
5:51 pm 17:51 Sunny 102 38.9 42 5.6 13 13 NW 20 31 29.74 1007 10 16 0.00 0.00
6:51 pm 18:51 Sunny 100 37.8 41 5 13 13 NW 14 22 29.74 1007 10 16 0.00 0.00
7:51 pm 19:51 Clear 95 35 43 6.1 17 17 WNW 15 24 29.76 1008 10 16 0.00 0.00
8:51 pm 20:51 Clear 91 32.8 43 6.1 19 19 NW 13 20 29.79 1009 10 16 0.00 0.00
9:51 pm 21:51 Clear 91 32.8 44 6.7 20 20 NW 16 26 29.80 1009 10 16 0.00 0.00
10:51 pm 22:51 Clear 87 30.6 44 6.7 22 22 WNW 12 19 29.81 1009 10 16 0.00 0.00
11:51 pm 23:51 Clear 84 28.9 44 6.7 25 25 WNW 8 13 29.81 1010 10 16 0.00 0.00

Powered by AerisWeather